FIT����(1)(���z���E����)�̑O�X���z��l,PV(MWh),WT(MWh),���v(MWh)
2017/10/1 0:00,0,0.5,0.5
2017/10/1 0:30,0,0.6,0.6
2017/10/1 1:00,0,0.6,0.6
2017/10/1 1:30,0,0.7,0.7
2017/10/1 2:00,0,0.7,0.7
2017/10/1 2:30,0,0.7,0.7
2017/10/1 3:00,0,0.7,0.7
2017/10/1 3:30,0,0.7,0.7
2017/10/1 4:00,0,0.7,0.7
2017/10/1 4:30,0,0.7,0.7
2017/10/1 5:00,0,0.6,0.6
2017/10/1 5:30,0,0.6,0.6
2017/10/1 6:00,0,0.6,0.6
2017/10/1 6:30,0,0.6,0.6
2017/10/1 7:00,3.2,0.6,3.8
2017/10/1 7:30,13.9,0.5,14.4
2017/10/1 8:00,25.9,0.5,26.4
2017/10/1 8:30,38.4,0.5,38.9
2017/10/1 9:00,50.1,0.5,50.6
2017/10/1 9:30,60.3,0.4,60.7
2017/10/1 10:00,69.3,0.4,69.7
2017/10/1 10:30,75.6,0.4,76
2017/10/1 11:00,80,0.4,80.4
2017/10/1 11:30,87.6,0.4,88
2017/10/1 12:00,90.7,0.4,91.1
2017/10/1 12:30,91.5,0.4,91.9
2017/10/1 13:00,90.3,0.4,90.7
2017/10/1 13:30,86,0.4,86.4
2017/10/1 14:00,80.4,0.4,80.8
2017/10/1 14:30,74.3,0.4,74.7
2017/10/1 15:00,64.9,0.4,65.3
2017/10/1 15:30,53.8,0.4,54.2
2017/10/1 16:00,48.8,0.4,49.2
2017/10/1 16:30,39,0.4,39.4
2017/10/1 17:00,27.7,0.5,28.2
2017/10/1 17:30,15.5,0.5,16
2017/10/1 18:00,5.1,0.5,5.6
2017/10/1 18:30,0.1,0.5,0.6
2017/10/1 19:00,0,0.5,0.5
2017/10/1 19:30,0,0.5,0.5
2017/10/1 20:00,0,0.5,0.5
2017/10/1 20:30,0,0.6,0.6
2017/10/1 21:00,0,0.6,0.6
2017/10/1 21:30,0,0.6,0.6
2017/10/1 22:00,0,0.7,0.7
2017/10/1 22:30,0,0.7,0.7
2017/10/1 23:00,0,0.7,0.7
2017/10/1 23:30,0,0.7,0.7
2017/10/2 0:00,0,0.5,0.5
2017/10/2 0:30,0,0.5,0.5
2017/10/2 1:00,0,0.5,0.5
2017/10/2 1:30,0,0.5,0.5
2017/10/2 2:00,0,0.5,0.5
2017/10/2 2:30,0,0.5,0.5
2017/10/2 3:00,0,0.5,0.5
2017/10/2 3:30,0,0.4,0.4
2017/10/2 4:00,0,0.4,0.4
2017/10/2 4:30,0,0.3,0.3
2017/10/2 5:00,0,0.2,0.2
2017/10/2 5:30,0,0.2,0.2
2017/10/2 6:00,0,0.2,0.2
2017/10/2 6:30,0,0.2,0.2
2017/10/2 7:00,3.2,0.2,3.4
2017/10/2 7:30,14.6,0.3,14.9
2017/10/2 8:00,28.4,0.3,28.7
2017/10/2 8:30,41.2,0.4,41.6
2017/10/2 9:00,53,0.5,53.5
2017/10/2 9:30,65,0.5,65.5
2017/10/2 10:00,73.4,0.5,73.9
2017/10/2 10:30,81.4,0.6,82
2017/10/2 11:00,86.7,0.6,87.3
2017/10/2 11:30,90,0.6,90.6
2017/10/2 12:00,91.6,0.5,92.1
2017/10/2 12:30,88.3,0.5,88.8
2017/10/2 13:00,83.2,0.4,83.6
2017/10/2 13:30,77.8,0.4,78.2
2017/10/2 14:00,74.3,0.3,74.6
2017/10/2 14:30,67.5,0.2,67.7
2017/10/2 15:00,57.7,0.2,57.9
2017/10/2 15:30,49.8,0.1,49.9
2017/10/2 16:00,41.9,0.1,42
2017/10/2 16:30,32.8,0.1,32.9
2017/10/2 17:00,23.4,0.1,23.5
2017/10/2 17:30,13.9,0.1,14
2017/10/2 18:00,4.6,0.1,4.7
2017/10/2 18:30,0,0.1,0.1
2017/10/2 19:00,0,0.2,0.2
2017/10/2 19:30,0,0.2,0.2
2017/10/2 20:00,0,0.3,0.3
2017/10/2 20:30,0,0.4,0.4
2017/10/2 21:00,0,0.4,0.4
2017/10/2 21:30,0,0.5,0.5
2017/10/2 22:00,0,0.5,0.5
2017/10/2 22:30,0,0.5,0.5
2017/10/2 23:00,0,0.5,0.5
2017/10/2 23:30,0,0.5,0.5
2017/10/3 0:00,0,0.5,0.5
2017/10/3 0:30,0,0.5,0.5
2017/10/3 1:00,0,0.5,0.5
2017/10/3 1:30,0,0.4,0.4
2017/10/3 2:00,0,0.4,0.4
2017/10/3 2:30,0,0.4,0.4
2017/10/3 3:00,0,0.4,0.4
2017/10/3 3:30,0,0.4,0.4
2017/10/3 4:00,0,0.4,0.4
2017/10/3 4:30,0,0.4,0.4
2017/10/3 5:00,0,0.4,0.4
2017/10/3 5:30,0,0.4,0.4
2017/10/3 6:00,0,0.4,0.4
2017/10/3 6:30,0,0.4,0.4
2017/10/3 7:00,2.2,0.4,2.6
2017/10/3 7:30,10.7,0.3,11
2017/10/3 8:00,21.8,0.3,22.1
2017/10/3 8:30,34.1,0.2,34.3
2017/10/3 9:00,45.3,0.2,45.5
2017/10/3 9:30,55.5,0.2,55.7
2017/10/3 10:00,66,0.2,66.2
2017/10/3 10:30,75.8,0.2,76
2017/10/3 11:00,80.1,0.3,80.4
2017/10/3 11:30,82.4,0.3,82.7
2017/10/3 12:00,84.8,0.4,85.2
2017/10/3 12:30,86.3,0.4,86.7
2017/10/3 13:00,86.4,0.4,86.8
2017/10/3 13:30,79,0.3,79.3
2017/10/3 14:00,73.5,0.3,73.8
2017/10/3 14:30,64,0.2,64.2
2017/10/3 15:00,58.7,0.2,58.9
2017/10/3 15:30,51.8,0.1,51.9
2017/10/3 16:00,42.7,0.1,42.8
2017/10/3 16:30,32.5,0.1,32.6
2017/10/3 17:00,22.2,0.1,22.3
2017/10/3 17:30,12.5,0,12.5
2017/10/3 18:00,4.4,0,4.4
2017/10/3 18:30,0,0,0
2017/10/3 19:00,0,0,0
2017/10/3 19:30,0,0,0
2017/10/3 20:00,0,0,0
2017/10/3 20:30,0,0,0
2017/10/3 21:00,0,0.1,0.1
2017/10/3 21:30,0,0.1,0.1
2017/10/3 22:00,0,0.2,0.2
2017/10/3 22:30,0,0.3,0.3
2017/10/3 23:00,0,0.3,0.3
2017/10/3 23:30,0,0.5,0.5
2017/10/4 0:00,0,0.9,0.9
2017/10/4 0:30,0,1,1
2017/10/4 1:00,0,1.1,1.1
2017/10/4 1:30,0,1.2,1.2
2017/10/4 2:00,0,1.3,1.3
2017/10/4 2:30,0,1.3,1.3
2017/10/4 3:00,0,1.3,1.3
2017/10/4 3:30,0,1.3,1.3
2017/10/4 4:00,0,1.3,1.3
2017/10/4 4:30,0,1.3,1.3
2017/10/4 5:00,0,1.3,1.3
2017/10/4 5:30,0,1.3,1.3
2017/10/4 6:00,0,1.3,1.3
2017/10/4 6:30,0,1.4,1.4
2017/10/4 7:00,2.6,1.5,4.1
2017/10/4 7:30,12.7,1.6,14.3
2017/10/4 8:00,24.3,1.6,25.9
2017/10/4 8:30,35.7,1.7,37.4
2017/10/4 9:00,45.6,1.7,47.3
2017/10/4 9:30,54.1,1.6,55.7
2017/10/4 10:00,61.6,1.5,63.1
2017/10/4 10:30,68.9,1.3,70.2
2017/10/4 11:00,74.1,1.1,75.2
2017/10/4 11:30,79.7,0.9,80.6
2017/10/4 12:00,85,0.8,85.8
2017/10/4 12:30,87.3,0.8,88.1
2017/10/4 13:00,88.7,0.7,89.4
2017/10/4 13:30,87.9,0.8,88.7
2017/10/4 14:00,85.9,0.9,86.8
2017/10/4 14:30,79.6,0.9,80.5
2017/10/4 15:00,72.6,0.9,73.5
2017/10/4 15:30,64,1,65
2017/10/4 16:00,53.8,1,54.8
2017/10/4 16:30,42.6,1,43.6
2017/10/4 17:00,30.1,1,31.1
2017/10/4 17:30,17.5,1,18.5
2017/10/4 18:00,5.2,0.9,6.1
2017/10/4 18:30,0,0.9,0.9
2017/10/4 19:00,0,0.8,0.8
2017/10/4 19:30,0,0.8,0.8
2017/10/4 20:00,0,0.8,0.8
2017/10/4 20:30,0,0.8,0.8
2017/10/4 21:00,0,0.8,0.8
2017/10/4 21:30,0,0.8,0.8
2017/10/4 22:00,0,0.8,0.8
2017/10/4 22:30,0,0.8,0.8
2017/10/4 23:00,0,0.7,0.7
2017/10/4 23:30,0,0.7,0.7
2017/10/5 0:00,0,0.7,0.7
2017/10/5 0:30,0,0.7,0.7
2017/10/5 1:00,0,0.8,0.8
2017/10/5 1:30,0,0.8,0.8
2017/10/5 2:00,0,0.8,0.8
2017/10/5 2:30,0,0.8,0.8
2017/10/5 3:00,0,0.8,0.8
2017/10/5 3:30,0,0.8,0.8
2017/10/5 4:00,0,0.8,0.8
2017/10/5 4:30,0,0.7,0.7
2017/10/5 5:00,0,0.7,0.7
2017/10/5 5:30,0,0.7,0.7
2017/10/5 6:00,0,0.6,0.6
2017/10/5 6:30,0,0.6,0.6
2017/10/5 7:00,2.1,0.6,2.7
2017/10/5 7:30,9.4,0.6,10
2017/10/5 8:00,17.9,0.6,18.5
2017/10/5 8:30,27.6,0.6,28.2
2017/10/5 9:00,37.1,0.6,37.7
2017/10/5 9:30,48.7,0.6,49.3
2017/10/5 10:00,55.6,0.5,56.1
2017/10/5 10:30,64.6,0.5,65.1
2017/10/5 11:00,74.8,0.5,75.3
2017/10/5 11:30,79.6,0.4,80
2017/10/5 12:00,83.8,0.4,84.2
2017/10/5 12:30,86.3,0.4,86.7
2017/10/5 13:00,84.8,0.4,85.2
2017/10/5 13:30,84.7,0.3,85
2017/10/5 14:00,82.1,0.3,82.4
2017/10/5 14:30,76.4,0.3,76.7
2017/10/5 15:00,67.5,0.3,67.8
2017/10/5 15:30,58.4,0.3,58.7
2017/10/5 16:00,50.5,0.3,50.8
2017/10/5 16:30,39.2,0.4,39.6
2017/10/5 17:00,27.3,0.4,27.7
2017/10/5 17:30,14.5,0.4,14.9
2017/10/5 18:00,4.2,0.5,4.7
2017/10/5 18:30,0,0.5,0.5
2017/10/5 19:00,0,0.6,0.6
2017/10/5 19:30,0,0.6,0.6
2017/10/5 20:00,0,0.7,0.7
2017/10/5 20:30,0,0.8,0.8
2017/10/5 21:00,0,0.8,0.8
2017/10/5 21:30,0,0.8,0.8
2017/10/5 22:00,0,0.8,0.8
2017/10/5 22:30,0,0.8,0.8
2017/10/5 23:00,0,0.8,0.8
2017/10/5 23:30,0,0.8,0.8
2017/10/6 0:00,0,0.7,0.7
2017/10/6 0:30,0,0.7,0.7
2017/10/6 1:00,0,0.9,0.9
2017/10/6 1:30,0,1,1
2017/10/6 2:00,0,1.2,1.2
2017/10/6 2:30,0,1.4,1.4
2017/10/6 3:00,0,1.5,1.5
2017/10/6 3:30,0,1.6,1.6
2017/10/6 4:00,0,1.6,1.6
2017/10/6 4:30,0,1.7,1.7
2017/10/6 5:00,0,1.7,1.7
2017/10/6 5:30,0,1.8,1.8
2017/10/6 6:00,0,1.8,1.8
2017/10/6 6:30,0,1.9,1.9
2017/10/6 7:00,2.8,2,4.8
2017/10/6 7:30,14.8,2.1,16.9
2017/10/6 8:00,30,2.1,32.1
2017/10/6 8:30,43.1,2.2,45.3
2017/10/6 9:00,55.9,2.3,58.2
2017/10/6 9:30,67.8,2.3,70.1
2017/10/6 10:00,77.8,2.3,80.1
2017/10/6 10:30,87.9,2.3,90.2
2017/10/6 11:00,93.8,2.2,96
2017/10/6 11:30,94.6,2.1,96.7
2017/10/6 12:00,96.4,2,98.4
2017/10/6 12:30,96.8,1.9,98.7
2017/10/6 13:00,95.5,1.8,97.3
2017/10/6 13:30,92.6,1.6,94.2
2017/10/6 14:00,87.8,1.5,89.3
2017/10/6 14:30,82.1,1.4,83.5
2017/10/6 15:00,75.1,1.4,76.5
2017/10/6 15:30,65,1.2,66.2
2017/10/6 16:00,53.9,1,54.9
2017/10/6 16:30,41.6,0.9,42.5
2017/10/6 17:00,28.7,0.9,29.6
2017/10/6 17:30,15.5,0.9,16.4
2017/10/6 18:00,4.2,0.8,5
2017/10/6 18:30,0,0.8,0.8
2017/10/6 19:00,0,0.8,0.8
2017/10/6 19:30,0,0.8,0.8
2017/10/6 20:00,0,0.9,0.9
2017/10/6 20:30,0,0.8,0.8
2017/10/6 21:00,0,0.8,0.8
2017/10/6 21:30,0,0.8,0.8
2017/10/6 22:00,0,0.7,0.7
2017/10/6 22:30,0,0.7,0.7
2017/10/6 23:00,0,0.7,0.7
2017/10/6 23:30,0,0.6,0.6
2017/10/7 0:00,0,0.8,0.8
2017/10/7 0:30,0,0.8,0.8
2017/10/7 1:00,0,0.8,0.8
2017/10/7 1:30,0,0.9,0.9
2017/10/7 2:00,0,0.9,0.9
2017/10/7 2:30,0,0.9,0.9
2017/10/7 3:00,0,0.8,0.8
2017/10/7 3:30,0,0.7,0.7
2017/10/7 4:00,0,0.6,0.6
2017/10/7 4:30,0,0.5,0.5
2017/10/7 5:00,0,0.5,0.5
2017/10/7 5:30,0,0.4,0.4
2017/10/7 6:00,0,0.3,0.3
2017/10/7 6:30,0,0.3,0.3
2017/10/7 7:00,2.7,0.3,3
2017/10/7 7:30,14.1,0.2,14.3
2017/10/7 8:00,27.8,0.2,28
2017/10/7 8:30,40.9,0.2,41.1
2017/10/7 9:00,53.8,0.2,54
2017/10/7 9:30,66.1,0.1,66.2
2017/10/7 10:00,77,0.1,77.1
2017/10/7 10:30,86.1,0.1,86.2
2017/10/7 11:00,93.3,0.1,93.4
2017/10/7 11:30,96.2,0.1,96.3
2017/10/7 12:00,98.5,0.1,98.6
2017/10/7 12:30,94.9,0.2,95.1
2017/10/7 13:00,87.8,0.2,88
2017/10/7 13:30,82.7,0.2,82.9
2017/10/7 14:00,77.9,0.3,78.2
2017/10/7 14:30,69.8,0.3,70.1
2017/10/7 15:00,59.8,0.3,60.1
2017/10/7 15:30,52.2,0.3,52.5
2017/10/7 16:00,42.4,0.3,42.7
2017/10/7 16:30,32.8,0.2,33
2017/10/7 17:00,23.1,0.2,23.3
2017/10/7 17:30,13.7,0.1,13.8
2017/10/7 18:00,3.8,0.1,3.9
2017/10/7 18:30,0,0.1,0.1
2017/10/7 19:00,0,0.1,0.1
2017/10/7 19:30,0,0.1,0.1
2017/10/7 20:00,0,0.1,0.1
2017/10/7 20:30,0,0.2,0.2
2017/10/7 21:00,0,0.2,0.2
2017/10/7 21:30,0,0.2,0.2
2017/10/7 22:00,0,0.2,0.2
2017/10/7 22:30,0,0.2,0.2
2017/10/7 23:00,0,0.2,0.2
2017/10/7 23:30,0,0.3,0.3
2017/10/8 0:00,0,0.1,0.1
2017/10/8 0:30,0,0.1,0.1
2017/10/8 1:00,0,0.1,0.1
2017/10/8 1:30,0,0.1,0.1
2017/10/8 2:00,0,0.1,0.1
2017/10/8 2:30,0,0.1,0.1
2017/10/8 3:00,0,0.2,0.2
2017/10/8 3:30,0,0.2,0.2
2017/10/8 4:00,0,0.2,0.2
2017/10/8 4:30,0,0.1,0.1
2017/10/8 5:00,0,0.1,0.1
2017/10/8 5:30,0,0.1,0.1
2017/10/8 6:00,0,0.1,0.1
2017/10/8 6:30,0,0.1,0.1
2017/10/8 7:00,2.6,0.1,2.7
2017/10/8 7:30,13.8,0,13.8
2017/10/8 8:00,26.3,0,26.3
2017/10/8 8:30,39.2,0,39.2
2017/10/8 9:00,51.9,0,51.9
2017/10/8 9:30,63.4,0,63.4
2017/10/8 10:00,69.6,0,69.6
2017/10/8 10:30,69.1,0,69.1
2017/10/8 11:00,76.6,0,76.6
2017/10/8 11:30,76.9,0,76.9
2017/10/8 12:00,84.3,0,84.3
2017/10/8 12:30,89.1,0,89.1
2017/10/8 13:00,89.2,0,89.2
2017/10/8 13:30,87.3,0,87.3
2017/10/8 14:00,86.3,0,86.3
2017/10/8 14:30,81.1,0,81.1
2017/10/8 15:00,71.4,0,71.4
2017/10/8 15:30,61.5,0,61.5
2017/10/8 16:00,53.8,0,53.8
2017/10/8 16:30,40.7,0,40.7
2017/10/8 17:00,27.4,0,27.4
2017/10/8 17:30,15.2,0,15.2
2017/10/8 18:00,3.7,0.1,3.8
2017/10/8 18:30,0,0.1,0.1
2017/10/8 19:00,0,0.1,0.1
2017/10/8 19:30,0,0.1,0.1
2017/10/8 20:00,0,0.1,0.1
2017/10/8 20:30,0,0.3,0.3
2017/10/8 21:00,0,0.4,0.4
2017/10/8 21:30,0,0.4,0.4
2017/10/8 22:00,0,0.5,0.5
2017/10/8 22:30,0,0.5,0.5
2017/10/8 23:00,0,0.5,0.5
2017/10/8 23:30,0,0.5,0.5
2017/10/9 0:00,0,0.2,0.2
2017/10/9 0:30,0,0.1,0.1
2017/10/9 1:00,0,0.1,0.1
2017/10/9 1:30,0,0.1,0.1
2017/10/9 2:00,0,0,0
2017/10/9 2:30,0,0,0
2017/10/9 3:00,0,0,0
2017/10/9 3:30,0,0,0
2017/10/9 4:00,0,0,0
2017/10/9 4:30,0,0,0
2017/10/9 5:00,0,0,0
2017/10/9 5:30,0,0,0
2017/10/9 6:00,0,0,0
2017/10/9 6:30,0,0,0
2017/10/9 7:00,2.3,0,2.3
2017/10/9 7:30,12.5,0,12.5
2017/10/9 8:00,25.7,0,25.7
2017/10/9 8:30,37.1,0,37.1
2017/10/9 9:00,48.2,0,48.2
2017/10/9 9:30,61.8,0,61.8
2017/10/9 10:00,71.7,0,71.7
2017/10/9 10:30,80.5,0,80.5
2017/10/9 11:00,87.7,0,87.7
2017/10/9 11:30,93.1,0,93.1
2017/10/9 12:00,95.2,0,95.2
2017/10/9 12:30,91.2,0,91.2
2017/10/9 13:00,89,0,89
2017/10/9 13:30,90.4,0,90.4
2017/10/9 14:00,88.2,0,88.2
2017/10/9 14:30,82,0,82
2017/10/9 15:00,73.1,0,73.1
2017/10/9 15:30,66,0,66
2017/10/9 16:00,54.2,0,54.2
2017/10/9 16:30,39.5,0,39.5
2017/10/9 17:00,26.4,0,26.4
2017/10/9 17:30,14.5,0,14.5
2017/10/9 18:00,3.4,0,3.4
2017/10/9 18:30,0,0,0
2017/10/9 19:00,0,0,0
2017/10/9 19:30,0,0,0
2017/10/9 20:00,0,0,0
2017/10/9 20:30,0,0,0
2017/10/9 21:00,0,0.1,0.1
2017/10/9 21:30,0,0.1,0.1
2017/10/9 22:00,0,0.2,0.2
2017/10/9 22:30,0,0.3,0.3
2017/10/9 23:00,0,0.3,0.3
2017/10/9 23:30,0,0.3,0.3
2017/10/10 0:00,0,0.4,0.4
2017/10/10 0:30,0,0.3,0.3
2017/10/10 1:00,0,0.3,0.3
2017/10/10 1:30,0,0.3,0.3
2017/10/10 2:00,0,0.2,0.2
2017/10/10 2:30,0,0.2,0.2
2017/10/10 3:00,0,0.1,0.1
2017/10/10 3:30,0,0.1,0.1
2017/10/10 4:00,0,0.1,0.1
2017/10/10 4:30,0,0,0
2017/10/10 5:00,0,0,0
2017/10/10 5:30,0,0,0
2017/10/10 6:00,0,0,0
2017/10/10 6:30,0,0,0
2017/10/10 7:00,2.1,0,2.1
2017/10/10 7:30,12.8,0,12.8
2017/10/10 8:00,25.9,0,25.9
2017/10/10 8:30,39.3,0,39.3
2017/10/10 9:00,53.2,0,53.2
2017/10/10 9:30,63.4,0,63.4
2017/10/10 10:00,73.5,0,73.5
2017/10/10 10:30,82.7,0,82.7
2017/10/10 11:00,89.5,0,89.5
2017/10/10 11:30,97.8,0,97.8
2017/10/10 12:00,101.3,0,101.3
2017/10/10 12:30,98.5,0.1,98.6
2017/10/10 13:00,96.7,0.1,96.8
2017/10/10 13:30,92.3,0.1,92.4
2017/10/10 14:00,85.7,0.1,85.8
2017/10/10 14:30,75.3,0.1,75.4
2017/10/10 15:00,68.6,0.1,68.7
2017/10/10 15:30,62.6,0.1,62.7
2017/10/10 16:00,51,0.1,51.1
2017/10/10 16:30,37.4,0,37.4
2017/10/10 17:00,25.8,0,25.8
2017/10/10 17:30,14.1,0,14.1
2017/10/10 18:00,3.1,0,3.1
2017/10/10 18:30,0,0,0
2017/10/10 19:00,0,0,0
2017/10/10 19:30,0,0,0
2017/10/10 20:00,0,0,0
2017/10/10 20:30,0,0,0
2017/10/10 21:00,0,0,0
2017/10/10 21:30,0,0,0
2017/10/10 22:00,0,0,0
2017/10/10 22:30,0,0,0
2017/10/10 23:00,0,0.1,0.1
2017/10/10 23:30,0,0.1,0.1
2017/10/11 0:00,0,0.3,0.3
2017/10/11 0:30,0,0.2,0.2
2017/10/11 1:00,0,0.2,0.2
2017/10/11 1:30,0,0.1,0.1
2017/10/11 2:00,0,0.1,0.1
2017/10/11 2:30,0,0,0
2017/10/11 3:00,0,0,0
2017/10/11 3:30,0,0,0
2017/10/11 4:00,0,0,0
2017/10/11 4:30,0,0,0
2017/10/11 5:00,0,0,0
2017/10/11 5:30,0,0,0
2017/10/11 6:00,0,0,0
2017/10/11 6:30,0,0,0
2017/10/11 7:00,2.2,0,2.2
2017/10/11 7:30,12.9,0,12.9
2017/10/11 8:00,26.7,0,26.7
2017/10/11 8:30,40.5,0,40.5
2017/10/11 9:00,51.5,0,51.5
2017/10/11 9:30,62.5,0,62.5
2017/10/11 10:00,72.1,0.1,72.2
2017/10/11 10:30,80.2,0.1,80.3
2017/10/11 11:00,87.9,0.2,88.1
2017/10/11 11:30,90.9,0.2,91.1
2017/10/11 12:00,88.4,0.3,88.7
2017/10/11 12:30,91.1,0.4,91.5
2017/10/11 13:00,85.5,0.4,85.9
2017/10/11 13:30,83.8,0.3,84.1
2017/10/11 14:00,76.2,0.3,76.5
2017/10/11 14:30,62.8,0.2,63
2017/10/11 15:00,62.4,0.2,62.6
2017/10/11 15:30,59.9,0.2,60.1
2017/10/11 16:00,49.2,0.2,49.4
2017/10/11 16:30,36.6,0.1,36.7
2017/10/11 17:00,26.2,0.1,26.3
2017/10/11 17:30,13.6,0.1,13.7
2017/10/11 18:00,2.8,0,2.8
2017/10/11 18:30,0,0,0
2017/10/11 19:00,0,0,0
2017/10/11 19:30,0,0,0
2017/10/11 20:00,0,0,0
2017/10/11 20:30,0,0,0
2017/10/11 21:00,0,0,0
2017/10/11 21:30,0,0,0
2017/10/11 22:00,0,0,0
2017/10/11 22:30,0,0,0
2017/10/11 23:00,0,0,0
2017/10/11 23:30,0,0,0
2017/10/12 0:00,0,0,0
2017/10/12 0:30,0,0,0
2017/10/12 1:00,0,0,0
2017/10/12 1:30,0,0,0
2017/10/12 2:00,0,0,0
2017/10/12 2:30,0,0,0
2017/10/12 3:00,0,0,0
2017/10/12 3:30,0,0,0
2017/10/12 4:00,0,0,0
2017/10/12 4:30,0,0,0
2017/10/12 5:00,0,0,0
2017/10/12 5:30,0,0,0
2017/10/12 6:00,0,0,0
2017/10/12 6:30,0,0,0
2017/10/12 7:00,1.7,0,1.7
2017/10/12 7:30,10.6,0,10.6
2017/10/12 8:00,21.4,0,21.4
2017/10/12 8:30,29.2,0.1,29.3
2017/10/12 9:00,33.8,0.1,33.9
2017/10/12 9:30,39.6,0.2,39.8
2017/10/12 10:00,45.2,0.2,45.4
2017/10/12 10:30,51.7,0.2,51.9
2017/10/12 11:00,60,0.3,60.3
2017/10/12 11:30,68.5,0.3,68.8
2017/10/12 12:00,79.3,0.3,79.6
2017/10/12 12:30,76.5,0.3,76.8
2017/10/12 13:00,70.7,0.2,70.9
2017/10/12 13:30,70.2,0.2,70.4
2017/10/12 14:00,69.6,0.2,69.8
2017/10/12 14:30,66.8,0.2,67
2017/10/12 15:00,57.6,0.2,57.8
2017/10/12 15:30,48,0.2,48.2
2017/10/12 16:00,37.7,0.2,37.9
2017/10/12 16:30,29.4,0.2,29.6
2017/10/12 17:00,19.9,0.3,20.2
2017/10/12 17:30,10.4,0.3,10.7
2017/10/12 18:00,2.3,0.3,2.6
2017/10/12 18:30,0,0.3,0.3
2017/10/12 19:00,0,0.2,0.2
2017/10/12 19:30,0,0.2,0.2
2017/10/12 20:00,0,0.1,0.1
2017/10/12 20:30,0,0.1,0.1
2017/10/12 21:00,0,0.1,0.1
2017/10/12 21:30,0,0.1,0.1
2017/10/12 22:00,0,0.1,0.1
2017/10/12 22:30,0,0.1,0.1
2017/10/12 23:00,0,0.1,0.1
2017/10/12 23:30,0,0.1,0.1
2017/10/13 0:00,0,0.2,0.2
2017/10/13 0:30,0,0.3,0.3
2017/10/13 1:00,0,0.3,0.3
2017/10/13 1:30,0,0.3,0.3
2017/10/13 2:00,0,0.4,0.4
2017/10/13 2:30,0,0.4,0.4
2017/10/13 3:00,0,0.4,0.4
2017/10/13 3:30,0,0.4,0.4
2017/10/13 4:00,0,0.5,0.5
2017/10/13 4:30,0,0.7,0.7
2017/10/13 5:00,0,0.8,0.8
2017/10/13 5:30,0,1,1
2017/10/13 6:00,0,1.2,1.2
2017/10/13 6:30,0,1.2,1.2
2017/10/13 7:00,1.1,1.2,2.3
2017/10/13 7:30,6.9,1.1,8
2017/10/13 8:00,13.7,1,14.7
2017/10/13 8:30,19.8,0.8,20.6
2017/10/13 9:00,26.3,0.7,27
2017/10/13 9:30,34.4,0.6,35
2017/10/13 10:00,33.8,0.5,34.3
2017/10/13 10:30,39.1,0.5,39.6
2017/10/13 11:00,50.5,0.4,50.9
2017/10/13 11:30,55.2,0.4,55.6
2017/10/13 12:00,59.1,0.4,59.5
2017/10/13 12:30,58.9,0.4,59.3
2017/10/13 13:00,55.9,0.4,56.3
2017/10/13 13:30,55.8,0.5,56.3
2017/10/13 14:00,54.5,0.5,55
2017/10/13 14:30,49.3,0.5,49.8
2017/10/13 15:00,44.3,0.4,44.7
2017/10/13 15:30,38,0.4,38.4
2017/10/13 16:00,31.2,0.4,31.6
2017/10/13 16:30,23.6,0.4,24
2017/10/13 17:00,15.9,0.3,16.2
2017/10/13 17:30,8.5,0.3,8.8
2017/10/13 18:00,2.1,0.3,2.4
2017/10/13 18:30,0,0.3,0.3
2017/10/13 19:00,0,0.4,0.4
2017/10/13 19:30,0,0.4,0.4
2017/10/13 20:00,0,0.4,0.4
2017/10/13 20:30,0,0.4,0.4
2017/10/13 21:00,0,0.5,0.5
2017/10/13 21:30,0,0.5,0.5
2017/10/13 22:00,0,0.5,0.5
2017/10/13 22:30,0,0.4,0.4
2017/10/13 23:00,0,0.4,0.4
2017/10/13 23:30,0,0.4,0.4
2017/10/14 0:00,0,0.2,0.2
2017/10/14 0:30,0,0.1,0.1
2017/10/14 1:00,0,0.1,0.1
2017/10/14 1:30,0,0.1,0.1
2017/10/14 2:00,0,0.1,0.1
2017/10/14 2:30,0,0.1,0.1
2017/10/14 3:00,0,0.1,0.1
2017/10/14 3:30,0,0.1,0.1
2017/10/14 4:00,0,0.1,0.1
2017/10/14 4:30,0,0.1,0.1
2017/10/14 5:00,0,0.1,0.1
2017/10/14 5:30,0,0.2,0.2
2017/10/14 6:00,0,0.3,0.3
2017/10/14 6:30,0,0.3,0.3
2017/10/14 7:00,1.3,0.4,1.7
2017/10/14 7:30,8.1,0.4,8.5
2017/10/14 8:00,17,0.4,17.4
2017/10/14 8:30,26,0.4,26.4
2017/10/14 9:00,35.4,0.4,35.8
2017/10/14 9:30,44.3,0.3,44.6
2017/10/14 10:00,53,0.3,53.3
2017/10/14 10:30,56.1,0.3,56.4
2017/10/14 11:00,59.3,0.3,59.6
2017/10/14 11:30,60.3,0.2,60.5
2017/10/14 12:00,62.1,0.2,62.3
2017/10/14 12:30,64.3,0.2,64.5
2017/10/14 13:00,62.7,0.2,62.9
2017/10/14 13:30,62.1,0.2,62.3
2017/10/14 14:00,60.9,0.3,61.2
2017/10/14 14:30,58.6,0.4,59
2017/10/14 15:00,50,0.6,50.6
2017/10/14 15:30,43.9,0.7,44.6
2017/10/14 16:00,35.5,0.7,36.2
2017/10/14 16:30,26.5,0.8,27.3
2017/10/14 17:00,17.4,0.8,18.2
2017/10/14 17:30,8.3,0.8,9.1
2017/10/14 18:00,1.9,0.7,2.6
2017/10/14 18:30,0,0.7,0.7
2017/10/14 19:00,0,0.6,0.6
2017/10/14 19:30,0,0.5,0.5
2017/10/14 20:00,0,0.4,0.4
2017/10/14 20:30,0,0.4,0.4
2017/10/14 21:00,0,0.3,0.3
2017/10/14 21:30,0,0.3,0.3
2017/10/14 22:00,0,0.3,0.3
2017/10/14 22:30,0,0.3,0.3
2017/10/14 23:00,0,0.3,0.3
2017/10/14 23:30,0,0.4,0.4
2017/10/15 0:00,0,0.9,0.9
2017/10/15 0:30,0,1,1
2017/10/15 1:00,0,1.1,1.1
2017/10/15 1:30,0,1.2,1.2
2017/10/15 2:00,0,1.3,1.3
2017/10/15 2:30,0,1.4,1.4
2017/10/15 3:00,0,1.5,1.5
2017/10/15 3:30,0,1.5,1.5
2017/10/15 4:00,0,1.5,1.5
2017/10/15 4:30,0,1.5,1.5
2017/10/15 5:00,0,1.4,1.4
2017/10/15 5:30,0,1.4,1.4
2017/10/15 6:00,0,1.4,1.4
2017/10/15 6:30,0,1.4,1.4
2017/10/15 7:00,1.2,1.5,2.7
2017/10/15 7:30,7.8,1.5,9.3
2017/10/15 8:00,16.5,1.6,18.1
2017/10/15 8:30,25.6,1.6,27.2
2017/10/15 9:00,33.6,1.6,35.2
2017/10/15 9:30,41.9,1.6,43.5
2017/10/15 10:00,51,1.5,52.5
2017/10/15 10:30,58.3,1.3,59.6
2017/10/15 11:00,64,1.1,65.1
2017/10/15 11:30,70,1,71
2017/10/15 12:00,74.1,0.8,74.9
2017/10/15 12:30,70.2,0.8,71
2017/10/15 13:00,64.2,0.9,65.1
2017/10/15 13:30,61,1,62
2017/10/15 14:00,59.4,1.1,60.5
2017/10/15 14:30,53.7,1.1,54.8
2017/10/15 15:00,47.9,1.2,49.1
2017/10/15 15:30,41.5,1.2,42.7
2017/10/15 16:00,34.3,1.2,35.5
2017/10/15 16:30,25.1,1.2,26.3
2017/10/15 17:00,15.5,1.1,16.6
2017/10/15 17:30,7.4,1.1,8.5
2017/10/15 18:00,1.7,1.1,2.8
2017/10/15 18:30,0,1.1,1.1
2017/10/15 19:00,0,1.1,1.1
2017/10/15 19:30,0,1.1,1.1
2017/10/15 20:00,0,1,1
2017/10/15 20:30,0,1,1
2017/10/15 21:00,0,1,1
2017/10/15 21:30,0,1,1
2017/10/15 22:00,0,0.9,0.9
2017/10/15 22:30,0,0.9,0.9
2017/10/15 23:00,0,0.9,0.9
2017/10/15 23:30,0,0.9,0.9
2017/10/16 0:00,0,0.9,0.9
2017/10/16 0:30,0,0.9,0.9
2017/10/16 1:00,0,0.9,0.9
2017/10/16 1:30,0,1,1
2017/10/16 2:00,0,1,1
2017/10/16 2:30,0,1.1,1.1
2017/10/16 3:00,0,1.1,1.1
2017/10/16 3:30,0,1.1,1.1
2017/10/16 4:00,0,1,1
2017/10/16 4:30,0,1,1
2017/10/16 5:00,0,1,1
2017/10/16 5:30,0,1,1
2017/10/16 6:00,0,1.1,1.1
2017/10/16 6:30,0,1.1,1.1
2017/10/16 7:00,0.8,1.3,2.1
2017/10/16 7:30,6.1,1.4,7.5
2017/10/16 8:00,14,1.4,15.4
2017/10/16 8:30,21.4,1.5,22.9
2017/10/16 9:00,26.9,1.4,28.3
2017/10/16 9:30,33.2,1.3,34.5
2017/10/16 10:00,40,1.2,41.2
2017/10/16 10:30,46.2,1,47.2
2017/10/16 11:00,51.2,0.8,52
2017/10/16 11:30,58.4,0.7,59.1
2017/10/16 12:00,64.9,0.6,65.5
2017/10/16 12:30,62.4,0.5,62.9
2017/10/16 13:00,56.7,0.5,57.2
2017/10/16 13:30,57.3,0.5,57.8
2017/10/16 14:00,54,0.5,54.5
2017/10/16 14:30,48.4,0.5,48.9
2017/10/16 15:00,44.1,0.6,44.7
2017/10/16 15:30,42.2,0.6,42.8
2017/10/16 16:00,38.8,0.7,39.5
2017/10/16 16:30,32.6,0.8,33.4
2017/10/16 17:00,20.3,0.8,21.1
2017/10/16 17:30,9.8,0.9,10.7
2017/10/16 18:00,1.6,0.9,2.5
2017/10/16 18:30,0,0.9,0.9
2017/10/16 19:00,0,1,1
2017/10/16 19:30,0,1,1
2017/10/16 20:00,0,1,1
2017/10/16 20:30,0,1,1
2017/10/16 21:00,0,0.9,0.9
2017/10/16 21:30,0,0.9,0.9
2017/10/16 22:00,0,0.8,0.8
2017/10/16 22:30,0,0.7,0.7
2017/10/16 23:00,0,0.7,0.7
2017/10/16 23:30,0,0.6,0.6
2017/10/17 0:00,0,0.6,0.6
2017/10/17 0:30,0,0.5,0.5
2017/10/17 1:00,0,0.5,0.5
2017/10/17 1:30,0,0.5,0.5
2017/10/17 2:00,0,0.6,0.6
2017/10/17 2:30,0,0.6,0.6
2017/10/17 3:00,0,0.6,0.6
2017/10/17 3:30,0,0.7,0.7
2017/10/17 4:00,0,0.8,0.8
2017/10/17 4:30,0,0.8,0.8
2017/10/17 5:00,0,0.9,0.9
2017/10/17 5:30,0,1,1
2017/10/17 6:00,0,1.1,1.1
2017/10/17 6:30,0,1.1,1.1
2017/10/17 7:00,1.4,1.2,2.6
2017/10/17 7:30,10.3,1.2,11.5
2017/10/17 8:00,21.9,1.2,23.1
2017/10/17 8:30,32.2,1.2,33.4
2017/10/17 9:00,42.6,1,43.6
2017/10/17 9:30,52.4,0.8,53.2
2017/10/17 10:00,58.4,0.6,59
2017/10/17 10:30,61.7,0.5,62.2
2017/10/17 11:00,65.1,0.4,65.5
2017/10/17 11:30,69.4,0.3,69.7
2017/10/17 12:00,76.2,0.3,76.5
2017/10/17 12:30,82,0.2,82.2
2017/10/17 13:00,81.3,0.2,81.5
2017/10/17 13:30,78.5,0.2,78.7
2017/10/17 14:00,74.7,0.2,74.9
2017/10/17 14:30,73.2,0.2,73.4
2017/10/17 15:00,60.7,0.2,60.9
2017/10/17 15:30,52.7,0.3,53
2017/10/17 16:00,42.6,0.3,42.9
2017/10/17 16:30,31.8,0.3,32.1
2017/10/17 17:00,21.1,0.4,21.5
2017/10/17 17:30,10.7,0.4,11.1
2017/10/17 18:00,1.5,0.5,2
2017/10/17 18:30,0,0.6,0.6
2017/10/17 19:00,0,0.6,0.6
2017/10/17 19:30,0,0.7,0.7
2017/10/17 20:00,0,0.8,0.8
2017/10/17 20:30,0,0.8,0.8
2017/10/17 21:00,0,0.8,0.8
2017/10/17 21:30,0,0.8,0.8
2017/10/17 22:00,0,0.7,0.7
2017/10/17 22:30,0,0.7,0.7
2017/10/17 23:00,0,0.6,0.6
2017/10/17 23:30,0,0.6,0.6
2017/10/18 0:00,0,0.7,0.7
2017/10/18 0:30,0,0.8,0.8
2017/10/18 1:00,0,1,1
2017/10/18 1:30,0,1.1,1.1
2017/10/18 2:00,0,1.2,1.2
2017/10/18 2:30,0,1.3,1.3
2017/10/18 3:00,0,1.3,1.3
2017/10/18 3:30,0,1.3,1.3
2017/10/18 4:00,0,1.3,1.3
2017/10/18 4:30,0,1.2,1.2
2017/10/18 5:00,0,1.1,1.1
2017/10/18 5:30,0,1,1
2017/10/18 6:00,0,0.9,0.9
2017/10/18 6:30,0,0.9,0.9
2017/10/18 7:00,1.3,0.9,2.2
2017/10/18 7:30,10,0.9,10.9
2017/10/18 8:00,21.6,0.9,22.5
2017/10/18 8:30,32.5,0.9,33.4
2017/10/18 9:00,42,0.9,42.9
2017/10/18 9:30,51.4,0.8,52.2
2017/10/18 10:00,63.4,0.8,64.2
2017/10/18 10:30,71.8,0.7,72.5
2017/10/18 11:00,77.9,0.6,78.5
2017/10/18 11:30,82.2,0.6,82.8
2017/10/18 12:00,85.5,0.5,86
2017/10/18 12:30,88.8,0.5,89.3
2017/10/18 13:00,89.7,0.5,90.2
2017/10/18 13:30,84.4,0.5,84.9
2017/10/18 14:00,79,0.5,79.5
2017/10/18 14:30,72.9,0.5,73.4
2017/10/18 15:00,65.1,0.5,65.6
2017/10/18 15:30,56.6,0.6,57.2
2017/10/18 16:00,45.7,0.6,46.3
2017/10/18 16:30,34.6,0.6,35.2
2017/10/18 17:00,23.6,0.7,24.3